SL-14 R/B

Satellite information

Favourite Embed

Satellite Type and Status

ROCKET BODYIN ORBIT

Key statistics

Satellite SL-14 R/B at a glance.

Uptime

14392

Days in orbit

Revolutions

≈ 14.9

Per day

Orbit

LEO

Low Earth Orbit

Inclination

82.5

Latest

Satellite identification and parameters

Extended collection of information and parameters for SL-14 R/B.

Object identification

Identified? True

Debris? False

Object name: SL-14 R/B

International designator: 1985-113B

Object number (NORAD): 16327

Object ID (CCSDS): 16327

Country: COMMONWEALTH OF INDEPENDENT STATES (CIS)

Current information (Y/N): Y

RCS size: LARGE

Orbital parameters

Period: 96.941 minutes

Inclination: 82.5315 deg

SMA: 6990.332 km

Apoapsis: 624.706 km

Periapsis: 599.689 km

RAAN: 276.6227 deg

Eccentricy: 0.0017894

Argument of periapsis: 194.5943 deg

Mean anomaly: 279.4949 deg

Mean motion: 14.85443072 rev/day

Mean motion (dot): 0.00000733 rev/day2

B* drag term: 0.000082006 1/REarth

Two-line elements (TLE)

Creation date: May 8, 2025, 3:01 a.m.

Reference frame: TEME

Reference center: EARTH

Epoch: May 7, 2025, 8:22 p.m. UTC

TLE line 0: 0 SL-14 R/B

TLE line 1: 1 16327U 85113B 25127.84920633 .00000733 00000-0 82006-4 0 9992

TLE line 2: 2 16327 82.5315 276.6227 0017894 194.5943 279.4949 14.85443072108057

Live tracking on map

Real-time ground track for satellite SL-14 R/B.

In-orbit conjunctions

A list of the most updated potential collisions computed for object SL-14 R/B.

Target Orbit TCA Probability of collision Miss distance Type
FENGYUN 1C DEB SSO 2025-04-15 04:58:52 0.0002000038 203.0 (m) DEBRIS
OBJECT D SSO 2025-02-02 10:19:29 0.0002682951 210.0 (m) UNKNOWN
COSMOS 2251 DEB LEO 2025-01-22 01:50:04 0.0001483236 425.0 (m) DEBRIS
PSLV R/B SSO 2024-11-29 23:43:11 0.0002039179 1000.0 (m) ROCKET BODY
CZ-2D DEB SSO 2024-09-27 20:24:14 0.002615257 253.0 (m) DEBRIS

Associated space launch

Tselina-D satellites provided detailed observation of radio sources detected by the smaller Tselina-O satellites as part of the Tselina ELINT system.

SL-14 R/B was lifted into orbit during the mission ‘Tsiklon-3 | Tselina-D 52’, on board a Tsiklon-3 space rocket.

The launch took place on Dec. 12, 1985, 3:51 p.m. from 32/1.

For more information about the launch, click the button.

Launch to space Tsiklon-3 | Tselina-D 52
Tsiklon-3 | Tselina-D 52

Agency: N/A

Status: Launch Successful

Launch date: Dec. 12, 1985, 3:51 p.m. UTC

Rocket: Tsiklon-3

Launch pad: 32/1

Location: Plesetsk Cosmodrome, Russian Federation

...

Latest news about this satellite

There are no fresh news available about this satellite. Check back as we update our databases every day.


Newsletter sign-up

Weekly statistics, charts and insights to help you stay on top of the space industry.